H1 CPF 1 NER 2021 6 14 9 6651 glonass140 H2 1903001 9140 44299 2021 6 14 0 0 0 2021 6 17 23 45 0 900 1 1 0 0 0 H9 10 0 59379 0.00000 0 -14130667.119 10774851.572 18334744.879 10 0 59379 900.00000 0 -16209438.211 11230002.218 16217533.536 10 0 59379 1800.00000 0 -17978255.067 11768534.906 13786192.593 10 0 59379 2700.00000 0 -19402731.990 12339258.183 11087746.292 10 0 59379 3600.00000 0 -20460655.139 12886758.096 8174410.869 10 0 59379 4500.00000 0 -21142715.584 13353883.724 5102595.460 10 0 59379 5400.00000 0 -21452717.884 13684322.805 1931819.501 10 0 59379 6300.00000 0 -21407254.991 13825159.201 -1276433.365 10 0 59379 7200.00000 0 -21034862.666 13729304.203 -4459903.110 10 0 59379 8100.00000 0 -20374688.373 13357698.420 -7556760.108 10 0 59379 9000.00000 0 -19474730.056 12681190.186 -10506807.440 10 0 59379 9900.00000 0 -18389718.463 11682009.617 -13252654.903 10 0 59379 10800.00000 0 -17178731.962 10354774.214 -15740841.457 10 0 59379 11700.00000 0 -15902644.257 8706981.377 -17922883.612 10 0 59379 12600.00000 0 -14621512.712 6758964.851 -19756228.601 10 0 59379 13500.00000 0 -13392017.712 4543314.600 -21205093.079 10 0 59379 14400.00000 0 -12265061.388 2103782.288 -22241170.338 10 0 59379 15300.00000 0 -11283627.503 -506283.563 -22844191.570 10 0 59379 16200.00000 0 -10480993.194 -3225908.783 -23002329.645 10 0 59379 17100.00000 0 -9879368.414 -5988789.901 -22712437.025 10 0 59379 18000.00000 0 -9489020.806 -8725820.328 -21980112.629 10 0 59379 18900.00000 0 -9307923.040 -11367741.336 -20819595.988 10 0 59379 19800.00000 0 -9321937.434 -13847807.252 -19253490.398 10 0 59379 20700.00000 0 -9505529.733 -16104353.427 -17312320.351 10 0 59379 21600.00000 0 -9822981.276 -18083159.598 -15033931.823 10 0 59379 22500.00000 0 -10230047.448 -19739509.773 -12462747.368 10 0 59379 23400.00000 0 -10675991.170 -21039862.514 -9648891.020 10 0 59379 24300.00000 0 -11105904.100 -21963062.144 -6647200.774 10 0 59379 25200.00000 0 -11463215.913 -22501040.895 -3516148.803 10 0 59379 26100.00000 0 -11692284.083 -22658983.749 -316691.616 10 0 59379 27000.00000 0 -11740953.301 -22454950.638 2888926.317 10 0 59379 27900.00000 0 -11562975.192 -21918973.773 6038391.094 10 0 59379 28800.00000 0 -11120185.293 -21091670.048 9070535.322 10 0 59379 29700.00000 0 -10384344.930 -20022428.879 11926527.217 10 0 59379 30600.00000 0 -9338570.149 -18767253.402 14551009.507 10 0 59379 31500.00000 0 -7978287.698 -17386347.152 16893166.116 10 0 59379 32400.00000 0 -6311678.109 -15941548.412 18907696.583 10 0 59379 33300.00000 0 -4359587.541 -14493720.134 20555680.383 10 0 59379 34200.00000 0 -2154912.258 -13100204.487 21805315.640 10 0 59379 35100.00000 0 258518.704 -11812447.732 22632519.516 10 0 59379 36000.00000 0 2827516.605 -10673893.418 23021380.166 10 0 59379 36900.00000 0 5491497.137 -9718230.411 22964452.922 10 0 59379 37800.00000 0 8184755.303 -8968067.266 22462896.115 10 0 59379 38700.00000 0 10838958.221 -8434086.704 21526444.648 10 0 59379 39600.00000 0 13385754.143 -8114714.266 20173222.117 10 0 59379 40500.00000 0 15759391.400 -7996313.999 18429394.918 10 0 59379 41400.00000 0 17899240.442 -8053902.529 16328674.364 10 0 59379 42300.00000 0 19752115.757 -8252351.541 13911675.503 10 0 59379 43200.00000 0 21274302.504 -8548028.534 11225143.762 10 0 59379 44100.00000 0 22433204.350 -8890807.533 8321063.030 10 0 59379 45000.00000 0 23208544.209 -9226365.840 5255661.193 10 0 59379 45900.00000 0 23593067.807 -9498670.723 2088331.196 10 0 59379 46800.00000 0 23592720.283 -9652551.585 -1119512.386 10 0 59379 47700.00000 0 23226287.840 -9636249.108 -4305619.623 10 0 59379 48600.00000 0 22524518.716 -9403833.336 -7408111.619 10 0 59379 49500.00000 0 21528759.639 -8917387.663 -10366683.600 10 0 59379 50400.00000 0 20289164.332 -8148865.162 -13123780.899 10 0 59379 51300.00000 0 18862548.890 -7081537.101 -15625724.527 10 0 59379 52200.00000 0 17309983.861 -5710970.442 -17823763.792 10 0 59379 53100.00000 0 15694224.268 -4045490.873 -19675034.685 10 0 59379 54000.00000 0 14077085.740 -2106109.493 -21143404.708 10 0 59379 54900.00000 0 12516877.400 74086.048 -22200186.962 10 0 59379 55800.00000 0 11065999.843 2451052.466 -22824708.891 10 0 59379 56700.00000 0 9768809.623 4971378.632 -23004724.020 10 0 59379 57600.00000 0 8659840.373 7574275.188 -22736658.108 10 0 59379 58500.00000 0 7762455.655 10193883.713 -22025684.407 10 0 59379 59400.00000 0 7087990.204 12761809.504 -20885626.184 10 0 59379 60300.00000 0 6635415.526 15209772.407 -19338688.061 10 0 59379 61200.00000 0 6391543.440 17472264.735 -17415021.243 10 0 59379 62100.00000 0 6331758.175 19489104.992 -15152131.155 10 0 59379 63000.00000 0 6421245.038 21207780.314 -12594139.182 10 0 59379 63900.00000 0 6616662.415 22585479.300 -9790913.449 10 0 59379 64800.00000 0 6868184.886 23590730.204 -6797086.279 10 0 59379 65700.00000 0 7121829.382 24204576.140 -3670978.369 10 0 59379 66600.00000 0 7321964.296 24421238.729 -473451.824 10 0 59379 67500.00000 0 7413893.814 24248243.528 2733284.474 10 0 59379 68400.00000 0 7346406.755 23706003.466 5886892.837 10 0 59379 69300.00000 0 7074181.099 22826879.534 8926123.326 10 0 59379 70200.00000 0 6559941.880 21653760.050 11792004.628 10 0 59379 71100.00000 0 5776281.006 20238219.881 14428985.843 10 0 59379 72000.00000 0 4707062.274 18638338.363 16786007.096 10 0 59379 72900.00000 0 3348352.630 16916268.460 18817478.817 10 0 59379 73800.00000 0 1708840.774 15135659.465 20484151.754 10 0 59379 74700.00000 0 -190274.177 13359041.007 21753862.088 10 0 59379 75600.00000 0 -2315919.361 11645277.015 22602138.774 10 0 59379 76500.00000 0 -4624283.893 10047194.710 23012662.921 10 0 59379 77400.00000 0 -7062406.963 8609486.026 22977571.681 10 0 59379 78300.00000 0 -9570153.298 7366967.152 22497601.961 10 0 59379 79200.00000 0 -12082495.329 6343266.926 21582071.931 10 0 59379 80100.00000 0 -14532008.873 5549997.157 20248700.997 10 0 59379 81000.00000 0 -16851480.551 4986438.070 18523271.551 10 0 59379 81900.00000 0 -18976520.451 4639751.030 16439138.419 10 0 59379 82800.00000 0 -20848073.038 4485709.122 14036594.513 10 0 59379 83700.00000 0 -22414723.218 4489914.826 11362103.763 10 0 59379 84600.00000 0 -23634702.477 4609453.886 8467414.742 10 0 59379 85500.00000 0 -24477511.827 4794916.327 5408570.933 10 0 59380 0.00000 0 -24925093.898 4992700.047 2244835.630 10 0 59380 900.00000 0 -24972504.465 5147500.052 -962449.044 10 0 59380 1800.00000 0 -24628055.353 5204879.161 -4151046.385 10 0 59380 2700.00000 0 -23912920.385 5113810.193 -7259031.329 10 0 59380 3600.00000 0 -22860221.416 4829082.905 -10225994.223 10 0 59380 4500.00000 0 -21513630.748 4313471.998 -12994218.739 10 0 59380 5400.00000 0 -19925548.256 3539573.489 -15509810.515 10 0 59380 6300.00000 0 -18154928.992 2491229.900 -17723753.921 10 0 59380 7200.00000 0 -16264852.162 1164482.091 -19592875.612 10 0 59380 8100.00000 0 -14319933.384 -431994.706 -21080695.391 10 0 59380 9000.00000 0 -12383688.888 -2276991.301 -22158147.141 10 0 59380 9900.00000 0 -10515962.527 -4337399.321 -22804155.024 10 0 59380 10800.00000 0 -8770523.807 -6569355.675 -23006053.185 10 0 59380 11700.00000 0 -7192937.965 -8919850.357 -22759840.185 10 0 59380 12600.00000 0 -5818797.699 -11328731.378 -22070262.700 10 0 59380 13500.00000 0 -4672390.728 -13731023.718 -20950726.460 10 0 59380 14400.00000 0 -3765858.888 -16059465.640 -19423035.831 10 0 59380 15300.00000 0 -3098883.596 -18247156.187 -17516966.936 10 0 59380 16200.00000 0 -2658910.018 -20230202.806 -15269682.670 10 0 59380 17100.00000 0 -2421899.273 -21950257.883 -12725001.172 10 0 59380 18000.00000 0 -2353575.510 -23356837.407 -9932532.545 10 0 59380 18900.00000 0 -2411113.449 -24409324.315 -6946701.321 10 0 59380 19800.00000 0 -2545193.201 -25078572.448 -3825674.641 10 0 59380 20700.00000 0 -2702333.599 -25348044.033 -630218.179 10 0 59380 21600.00000 0 -2827403.477 -25214433.694 2577496.761 10 0 59380 22500.00000 0 -2866203.009 -24687753.805 5735110.666 10 0 59380 23400.00000 0 -2768004.616 -23790879.014 8781293.003 10 0 59380 24300.00000 0 -2487945.041 -22558570.655 11656934.886 10 0 59380 25200.00000 0 -1989166.993 -21036023.559 14306293.730 10 0 59380 26100.00000 0 -1244619.834 -19276997.677 16678067.761 10 0 59380 27000.00000 0 -238443.568 -17341613.929 18726380.122 10 0 59380 27900.00000 0 1033121.842 -15293907.073 20411654.519 10 0 59380 28800.00000 0 2561339.626 -13199238.048 21701366.692 10 0 59380 29700.00000 0 4325108.325 -11121673.253 22570658.686 10 0 59380 30600.00000 0 6291617.434 -9121438.944 23002805.615 10 0 59380 31500.00000 0 8417499.570 -7252555.362 22989527.246 10 0 59380 32400.00000 0 10650432.005 -5560747.231 22531139.611 10 0 59380 33300.00000 0 12931122.076 -4081715.636 21636544.443 10 0 59380 34200.00000 0 15195595.336 -2839841.357 20323057.016 10 0 59380 35100.00000 0 17377693.001 -1847371.948 18616075.534 10 0 59380 36000.00000 0 19411676.585 -1104125.068 16548597.872 10 0 59380 36900.00000 0 21234832.939 -597719.511 14160594.073 10 0 59380 37800.00000 0 22789972.618 -304323.700 11498245.498 10 0 59380 38700.00000 0 24027718.457 -189890.127 8613063.986 10 0 59380 39600.00000 0 24908489.330 -211824.087 5560906.814 10 0 59380 40500.00000 0 25404096.301 -321016.821 2400905.301 10 0 59380 41400.00000 0 25498883.980 -464157.775 -805673.129 10 0 59380 42300.00000 0 25190368.419 -586228.704 -3996607.929 10 0 59380 43200.00000 0 24489343.779 -633074.238 -7109930.854 10 0 59380 44100.00000 0 23419451.965 -553939.935 -10085130.434 10 0 59380 45000.00000 0 22016232.041 -303869.782 -12864331.706 10 0 59380 45900.00000 0 20325688.083 154139.419 -15393427.847 10 0 59380 46800.00000 0 18402434.564 847319.368 -17623141.034 10 0 59380 47700.00000 0 16307496.308 1791725.941 -19509991.103 10 0 59380 48600.00000 0 14105854.804 2991310.572 -21017152.457 10 0 59380 49500.00000 0 11863843.438 4437508.656 -22115181.796 10 0 59380 50400.00000 0 9646500.826 6109364.413 -22782601.779 10 0 59380 51300.00000 0 7514993.218 7974188.937 -23006328.639 10 0 59380 52200.00000 0 5524214.018 9988725.549 -22781934.862 10 0 59380 53100.00000 0 3720661.219 12100774.818 -22113741.288 10 0 59380 54000.00000 0 2140681.560 14251212.096 -21014736.434 10 0 59380 54900.00000 0 809154.821 16376313.504 -19506324.293 10 0 59380 55800.00000 0 -261327.030 18410292.951 -17617905.332 10 0 59380 56700.00000 0 -1070752.256 20287943.611 -15386298.894 10 0 59380 57600.00000 0 -1631442.225 21947272.673 -12855018.413 10 0 59380 58500.00000 0 -1967276.644 23332018.183 -10073414.079 10 0 59380 59400.00000 0 -2112425.653 24393941.817 -7095700.373 10 0 59380 60300.00000 0 -2109644.295 25094800.937 -3979888.274 10 0 59380 61200.00000 0 -2008203.481 25407916.921 -786644.141 10 0 59380 62100.00000 0 -1861547.004 25319274.138 2421901.388 10 0 59380 63000.00000 0 -1724775.583 24828104.018 5583370.192 10 0 59380 63900.00000 0 -1652065.925 23946930.643 8636354.401 10 0 59380 64800.00000 0 -1694135.160 22701077.179 11521610.767 10 0 59380 65700.00000 0 -1895858.579 21127655.233 14183208.140 10 0 59380 66600.00000 0 -2294141.555 19274080.816 16569605.805 10 0 59380 67500.00000 0 -2916135.359 17196180.127 18634642.379 10 0 59380 68400.00000 0 -3777871.670 14955965.083 20338417.054 10 0 59380 69300.00000 0 -4883372.732 12619171.716 21648047.381 10 0 59380 70200.00000 0 -6224274.085 10252663.744 22538290.433 10 0 59380 71100.00000 0 -7779975.508 7921808.512 22992016.895 10 0 59380 72000.00000 0 -9518313.873 5687933.165 23000530.304 10 0 59380 72900.00000 0 -11396730.353 3605965.022 22563726.485 10 0 59380 73800.00000 0 -13363884.162 1722352.182 21690090.886 10 0 59380 74700.00000 0 -15361646.772 73348.879 20396534.223 10 0 59380 75600.00000 0 -17327395.068 -1316265.118 18708069.510 10 0 59380 76500.00000 0 -19196509.552 -2433979.393 16657336.103 10 0 59380 77400.00000 0 -20904975.055 -3279830.169 14283979.064 10 0 59380 78300.00000 0 -22391976.965 -3866149.354 11633894.612 10 0 59380 79200.00000 0 -23602385.720 -4216796.301 8758354.897 10 0 59380 80100.00000 0 -24489026.368 -4365904.593 5713027.742 10 0 59380 81000.00000 0 -25014638.464 -4356196.340 2556909.135 10 0 59380 81900.00000 0 -25153443.883 -4236934.698 -648811.857 10 0 59380 82800.00000 0 -24892255.995 -4061600.589 -3841934.334 10 0 59380 83700.00000 0 -24231082.528 -3885391.592 -6960450.371 10 0 59380 84600.00000 0 -23183195.331 -3762648.820 -9943750.082 10 0 59380 85500.00000 0 -21774662.579 -3744320.982 -12733803.115 10 0 59381 0.00000 0 -20043361.546 -3875573.693 -15276293.141 10 0 59381 900.00000 0 -18037511.669 -4193646.702 -17521682.907 10 0 59381 1800.00000 0 -15813788.952 -4726049.878 -19426187.650 10 0 59381 2700.00000 0 -13435098.931 -5489178.040 -20952638.087 10 0 59381 3600.00000 0 -10968101.535 -6487402.772 -22071214.872 10 0 59381 4500.00000 0 -8480590.867 -7712682.953 -22760039.642 10 0 59381 5400.00000 0 -6038839.452 -9144711.640 -23005610.569 10 0 59381 6300.00000 0 -3705017.999 -10751595.000 -22803073.313 10 0 59381 7200.00000 0 -1534798.694 -12491036.060 -22156321.593 10 0 59381 8100.00000 0 424757.713 -14311974.590 -21077924.990 10 0 59381 9000.00000 0 2136942.856 -16156614.871 -19588885.047 10 0 59381 9900.00000 0 3576697.085 -17962756.340 -17718224.250 10 0 59381 10800.00000 0 4731407.646 -19666329.091 -15502415.886 10 0 59381 11700.00000 0 5601176.261 -21204027.254 -12984666.080 10 0 59381 12600.00000 0 6198546.254 -22515928.887 -10214062.485 10 0 59381 13500.00000 0 6547702.522 -23547991.538 -7244606.912 10 0 59381 14400.00000 0 6683180.080 -24254317.861 -4134151.634 10 0 59381 15300.00000 0 6648137.859 -24599095.530 -943261.245 10 0 59381 16200.00000 0 6492272.881 -24558129.665 2265976.607 10 0 59381 17100.00000 0 6269465.080 -24119903.532 5431167.370 10 0 59381 18000.00000 0 6035254.163 -23286123.466 8490827.873 10 0 59381 18900.00000 0 5844256.634 -22071725.976 11385582.388 10 0 59381 19800.00000 0 5747633.186 -20504347.785 14059312.902 10 0 59381 20700.00000 0 5790713.857 -18623282.158 16460241.287 10 0 59381 21600.00000 0 6010881.248 -16477966.174 18541922.948 10 0 59381 22500.00000 0 6435800.636 -14126062.880 20264133.657 10 0 59381 23400.00000 0 7082070.883 -11631218.707 21593633.625 10 0 59381 24300.00000 0 7954352.189 -9060589.362 22504795.556 10 0 59381 25200.00000 0 9045006.720 -6482236.397 22980086.059 10 0 59381 26100.00000 0 10334266.858 -3962501.464 23010392.565 10 0 59381 27000.00000 0 11790924.063 -1563465.626 22595190.604 10 0 59381 27900.00000 0 13373510.090 659402.786 21742549.061 10 0 59381 28800.00000 0 15031922.038 2659316.136 20468973.662 10 0 59381 29700.00000 0 16709424.654 4399867.436 18799091.638 10 0 59381 30600.00000 0 18344947.806 5856293.486 16765183.080 10 0 59381 31500.00000 0 19875584.651 7016250.094 14406567.151 10 0 59381 32400.00000 0 21239187.645 7880068.201 11768853.817 10 0 59381 33300.00000 0 22376955.045 8460480.986 8903074.189 10 0 59381 34200.00000 0 23235900.438 8781833.615 5864705.041 10 0 59381 35100.00000 0 23771102.193 8878808.866 2712605.157 10 0 59381 36000.00000 0 23947638.341 8794721.987 -492116.887 10 0 59381 36900.00000 0 23742124.939 8579456.290 -3687282.176 10 0 59381 37800.00000 0 23143792.185 8287126.338 -6810845.608 10 0 59381 38700.00000 0 22155051.553 7973567.330 -9802101.448 10 0 59381 39600.00000 0 20791528.370 7693756.958 -12602866.513 10 0 59381 40500.00000 0 19081556.681 7499279.256 -15158617.540 10 0 59381 41400.00000 0 17065155.761 7435938.526 -17419560.012 10 0 59381 42300.00000 0 14792529.699 7541625.343 -19341606.822 10 0 59381 43200.00000 0 12322151.552 7844526.249 -20887247.034 10 0 59381 44100.00000 0 9718511.244 8361754.338 -22026287.085 10 0 59381 45000.00000 0 7049620.805 9098460.160 -22736449.232 10 0 59381 45900.00000 0 4384380.801 10047462.132 -23003814.984 10 0 59381 46800.00000 0 1789917.770 11189413.528 -22823104.301 10 0 59381 47700.00000 0 -670996.058 12493500.312 -22197784.562 10 0 59381 48600.00000 0 -2942333.006 13918641.434 -21140006.797 10 0 59381 49500.00000 0 -4976910.395 15415141.726 -19670370.056 10 0 59381 50400.00000 0 -6738113.500 16926728.054 -17817518.345 10 0 59381 51300.00000 0 -8201169.472 18392882.928 -15617577.963 10 0 59381 52200.00000 0 -9353919.710 19751376.902 -13113446.376 10 0 59381 53100.00000 0 -10197059.430 20940892.392 -10353946.980 10 0 59381 54000.00000 0 -10743836.013 21903627.600 -7392866.880 10 0 59381 54900.00000 0 -11019220.759 22587769.982 -4287897.338 10 0 59381 55800.00000 0 -11058591.051 22949734.316 -1099498.666 10 0 59381 56700.00000 0 -10905980.849 22956070.582 2110287.169 10 0 59381 57600.00000 0 -10611975.610 22584961.132 5279052.002 10 0 59381 58500.00000 0 -10231342.578 21827244.249 8345240.249 10 0 59381 59400.00000 0 -9820498.299 20686921.587 11249346.619 10 0 59381 60300.00000 0 -9434921.588 19181128.837 13935069.148 10 0 59381 61200.00000 0 -9126621.899 17339571.767 16350395.140 10 0 59381 62100.00000 0 -8941770.100 15203452.047 18448599.529 10 0 59381 63000.00000 0 -8918591.232 12823928.395 20189137.257 10 0 59381 63900.00000 0 -9085607.294 10260177.633 21538413.584 10 0 59381 64800.00000 0 -9460303.081 7577136.279 22470418.962 10 0 59381 65700.00000 0 -10048270.212 4843015.981 22967217.738 10 0 59381 66600.00000 0 -10842864.500 2126694.961 23019282.663 10 0 59381 67500.00000 0 -11825390.562 -504907.831 22625669.965 10 0 59381 68400.00000 0 -12965805.948 -2989368.836 21794032.468 10 0 59381 69300.00000 0 -14223915.689 -5271103.081 20540470.867 10 0 59381 70200.00000 0 -15551008.152 -7303419.304 18889226.018 10 0 59381 71100.00000 0 -16891864.972 -9050203.678 16872217.593 10 0 59381 72000.00000 0 -18187062.299 -10487163.695 14528437.165 10 0 59381 72900.00000 0 -19375468.457 -11602581.789 11903206.259 10 0 59381 73800.00000 0 -20396834.664 -12397548.151 9047312.324 10 0 59381 74700.00000 0 -21194371.117 -12885663.444 6016038.108 10 0 59381 75600.00000 0 -21717200.915 -13092224.048 2868101.941 10 0 59381 76500.00000 0 -21922588.750 -13052923.906 -335471.548 10 0 59381 77400.00000 0 -21777850.192 -12812127.222 -3532529.012 10 0 59381 78300.00000 0 -21261860.241 -12420784.532 -6660991.817 10 0 59381 79200.00000 0 -20366096.206 -11934079.772 -9660062.031 10 0 59381 80100.00000 0 -19095169.268 -11408907.676 -12471407.210 10 0 59381 81000.00000 0 -17466820.389 -10901288.293 -15040300.516 10 0 59381 81900.00000 0 -15511378.639 -10463828.432 -17316693.383 10 0 59381 82800.00000 0 -13270702.819 -10143338.062 -19256199.056 10 0 59381 83700.00000 0 -10796648.964 -9978703.500 -20820967.156 10 0 59381 84600.00000 0 -8149126.449 -9999108.393 -21980431.498 10 0 59381 85500.00000 0 -5393822.987 -10222678.974 -22711915.864 10 0 59382 0.00000 0 -2599692.831 -10655612.032 -23001085.310 10 0 59382 900.00000 0 163687.495 -11291824.013 -22842233.594 10 0 59382 1800.00000 0 2828785.603 -12113136.134 -22238400.667 10 0 59382 2700.00000 0 5332690.325 -13089990.211 -21201317.359 10 0 59382 3600.00000 0 7619492.608 -14182663.905 -19751178.164 10 0 59382 4500.00000 0 9642370.050 -15342935.444 -17916246.197 10 0 59382 5400.00000 0 11365288.657 -16516127.037 -15732298.093 10 0 59382 6300.00000 0 12764251.063 -17643440.464 -13241919.786 10 0 59382 7200.00000 0 13828039.773 -18664485.523 -10493667.389 10 0 59382 8100.00000 0 14558425.595 -19519893.750 -7541110.191 10 0 59382 9000.00000 0 14969834.200 -20153906.106 -4441775.290 10 0 59382 9900.00000 0 15088486.805 -20516824.463 -1256015.596 10 0 59382 10800.00000 0 14951053.429 -20567222.707 1954175.614 10 0 59382 11700.00000 0 14602877.782 -20273823.659 5126379.394 10 0 59382 12600.00000 0 14095850.859 -19616962.532 8198970.336 10 0 59382 13500.00000 0 13486024.917 -18589575.430 11112315.874 10 0 59382 14400.00000 0 12831070.024 -17197671.715 13809932.031 10 0 59382 15300.00000 0 12187681.499 -15460271.012 16239573.109 10 0 59382 16200.00000 0 11609047.920 -13408808.133 18354234.765 10 0 59382 17100.00000 0 11142486.258 -11086031.307 20113051.913 10 0 59382 18000.00000 0 10827343.012 -8544440.047 21482075.306 10 0 59382 18900.00000 0 10693248.585 -5844327.699 22434913.251 10 0 59382 19800.00000 0 10758797.093 -3051509.497 22953227.624 10 0 59382 20700.00000 0 11030705.819 -234829.650 23027076.002 10 0 59382 21600.00000 0 11503488.628 2536450.594 22655094.589 10 0 59382 22500.00000 0 12159656.439 5195277.366 21844519.216 10 0 59382 23400.00000 0 12970436.173 7679334.197 20611044.475 10 0 59382 24300.00000 0 13896978.403 9933374.839 18978523.633 10 0 59382 25200.00000 0 14892003.848 11911264.071 16978514.625 10 0 59382 26100.00000 0 15901820.770 13577643.395 14649680.011 10 0 59382 27000.00000 0 16868629.918 14909153.782 12037051.337 10 0 59382 27900.00000 0 17733021.530 15895165.529 9191170.733 10 0 59382 28800.00000 0 18436560.579 16537985.279 6167125.114 10 0 59382 29700.00000 0 18924352.286 16852531.798 3023490.404 10 0 59382 30600.00000 0 19147480.253 16865493.999 -178794.801 10 0 59382 31500.00000 0 19065214.310 16614006.217 -3377604.913 10 0 59382 32400.00000 0 18646894.282 16143896.107 -6510830.005 10 0 59382 33300.00000 0 17873408.995 15507578.597 -9517582.173 10 0 59382 34200.00000 0 16738206.537 14761684.436 -12339381.872 10 0 59382 35100.00000 0 15247791.180 13964523.421 -14921300.724 10 0 59382 36000.00000 0 13421683.856 13173489.591 -17213038.005 10 0 59382 36900.00000 0 11291845.662 12442518.444 -19169909.038 10 0 59382 37800.00000 0 8901586.512 11819704.262 -20753725.559 10 0 59382 38700.00000 0 6304002.778 11345179.000 -21933550.159 10 0 59382 39600.00000 0 3560007.901 11049343.298 -22686309.368 10 0 59382 40500.00000 0 736037.134 10951525.256 -22997252.789 10 0 59382 41400.00000 0 -2098478.519 11059124.550 -22860248.760 10 0 59382 42300.00000 0 -4873764.048 11367278.823 -22277910.214 10 0 59382 43200.00000 0 -7522367.447 11859067.067 -21261547.877 10 0 59382 44100.00000 0 -9981730.737 12506241.771 -19830951.335 10 0 59382 45000.00000 0 -12196557.548 13270459.023 -18014002.052 10 0 59382 45900.00000 0 -14120878.493 14104954.388 -15846125.844 10 0 59382 46800.00000 0 -15719728.219 14956593.231 -13369595.617 10 0 59382 47700.00000 0 -16970364.438 15768208.049 -10632698.436 10 0 59382 48600.00000 0 -17862978.839 16481123.004 -7688783.803 10 0 59382 49500.00000 0 -18400871.340 17037757.842 -4595212.539 10 0 59382 50400.00000 0 -18600082.072 17384199.980 -1412227.932 10 0 59382 51300.00000 0 -18488498.590 17472635.084 1798227.741 10 0 59382 52200.00000 0 -18104478.111 17263532.653 4973727.137 10 0 59382 53100.00000 0 -17495045.013 16727493.900 8052577.471 10 0 59382 54000.00000 0 -16713741.665 15846683.796 10975021.412 10 0 59382 54900.00000 0 -15818224.863 14615787.121 13684395.506 10 0 59382 55800.00000 0 -14867710.445 13042448.669 16128223.595 10 0 59382 56700.00000 0 -13920374.344 11147179.593 18259224.538 10 0 59382 57600.00000 0 -13030819.551 8962734.203 20036215.595 10 0 59382 58500.00000 0 -12247714.968 6532983.560 21424895.206 10 0 59382 59400.00000 0 -11611704.354 3911332.779 22398491.488 10 0 59382 60300.00000 0 -11153671.820 1158747.446 22938265.503 10 0 59382 61200.00000 0 -10893435.176 -1658529.619 23033860.979 10 0 59382 62100.00000 0 -10838920.507 -4471477.800 22683495.024 10 0 59382 63000.00000 0 -10985851.433 -7210912.378 21893986.988 10 0 59382 63900.00000 0 -11317965.317 -9810105.902 20680625.410 10 0 59382 64800.00000 0 -11807747.082 -12207310.652 19066875.560 10 0 59382 65700.00000 0 -12417650.055 -14348079.525 17083932.754 10 0 59382 66600.00000 0 -13101753.271 -16187290.685 14770129.201 10 0 59382 67500.00000 0 -13807786.565 -17690793.326 12170204.701 10 0 59382 68400.00000 0 -14479439.468 -18836607.065 9334453.915 10 0 59382 69300.00000 0 -15058857.808 -19615625.556 6317765.444 10 0 59382 70200.00000 0 -15489223.780 -20031795.167 3178570.041 10 0 59382 71100.00000 0 -15717311.235 -20101761.118 -22282.728 10 0 59382 72000.00000 0 -15695908.475 -19853995.541 -3222698.224 10 0 59382 72900.00000 0 -15386005.819 -19327443.586 -6360538.570 10 0 59382 73800.00000 0 -14758654.602 -18569744.007 -9374829.344 10 0 59382 74700.00000 0 -13796417.657 -17635098.685 -12206947.382 10 0 59382 75600.00000 0 -12494348.200 -16581880.641 -14801766.209 10 0 59382 76500.00000 0 -10860453.652 -15470081.298 -17108736.226 10 0 59382 77400.00000 0 -8915622.586 -14358704.852 -19082877.828 10 0 59382 78300.00000 0 -6693015.552 -13303220.050 -20685667.448 10 0 59382 79200.00000 0 -4236943.185 -12353177.402 -21885798.500 10 0 59382 80100.00000 0 -1601276.752 -11550093.026 -22659801.689 10 0 59382 81000.00000 0 1152543.837 -10925689.051 -22992511.930 10 0 59382 81900.00000 0 3957822.484 -10500565.470 -22877372.224 10 0 59382 82800.00000 0 6745143.866 -10283360.023 -22316567.971 10 0 59382 83700.00000 0 9445029.416 -10270431.922 -21320988.689 10 0 59382 84600.00000 0 11990601.617 -10446082.926 -19910017.474 10 0 59382 85500.00000 0 14320145.181 -10783306.320 -18111152.124 99